Weather History for Hall Beach, NU

Change the Weather History Date:

Wednesday, April 3, 2013

  Actual Average Record
Temperature  
Mean Temperature -18 °F -  
Max Temperature -5 °F -1 °F 15 °F (2001)
Min Temperature -31 °F -17 °F -38 °F (1997)
Degree Days  
Heating Degree Days 83    
Moisture  
Dew Point -19 °F    
Average Humidity 79    
Maximum Humidity 92    
Minimum Humidity 68    
Precipitation  
Precipitation 0.00 in - - ()
Sea Level Pressure  
Sea Level Pressure 30.16 in    
Wind  
Wind Speed 14 mph ()    
Max Wind Speed 22 mph    
Max Gust Speed 26 mph    
Visibility 9.9 miles    
Events Snow    
Averages and records for this station are not official NWS values.
T = Trace of Precipitation, MM = Missing Value Source: Averaged Metar Reports

Daily Weather History Graph

Daily Weather History Graph

Search for Another Location

Airport:

Trip Planner

Search our weather history database for the weather conditions in past years. The results will help you decide how hot, cold, wet, or windy it might be!

Date:

Astronomy

Apr. 03, 2013 Rise Set
Actual Time 6:21 AM EDT 8:37 PM EDT
Civil Twilight 5:18 AM EDT 9:40 PM EDT
Nautical Twilight 3:47 AM EDT 11:14 PM EDT
Astronomical Twilight Sun does not rise Sun does not rise
Moon 5:35 AM EDT (4/3) 10:17 AM EDT (4/3)
Length of Visible Light 16h 21m
Length of Day
14h 15m
Last Quarter, 45% of the Moon is Illuminated
Apr 3
Last Quarter
Apr 10
New
Apr 18
First Quarter
Apr 25
Full
May 2
Last Quarter

Hourly Weather History & Observations

Time (EDT) Temp. Windchill Dew Point Humidity Pressure Visibility Wind Dir Wind Speed Gust Speed Precip Events Conditions
12:00 AM -27.4 °F -52.5 °F -34.6 °F 69% 30.18 in 9.0 mi NNW 12.7 mph - N/A   Clear
1:00 AM -31.0 °F -57.1 °F -38.2 °F 68% 30.18 in 9.0 mi NNW 12.7 mph - N/A   Clear
2:00 AM -31.0 °F -56.0 °F -36.4 °F 75% 30.19 in 9.0 mi North 11.5 mph - N/A   Clear
3:00 AM -29.2 °F -54.8 °F -36.4 °F 68% 30.19 in 9.0 mi NNW 12.7 mph - N/A   Clear
4:00 AM -29.2 °F -55.8 °F -34.6 °F 75% 30.20 in 9.0 mi NNW 13.8 mph - N/A   Clear
5:00 AM -29.2 °F -55.8 °F -34.6 °F 75% 30.20 in 9.0 mi NNW 13.8 mph - N/A   Clear
6:00 AM -29.2 °F -54.8 °F -34.6 °F 75% 30.22 in 9.0 mi NNW 12.7 mph - N/A   Clear
7:00 AM -29.2 °F -54.8 °F -36.4 °F 68% 30.22 in 9.0 mi NNW 12.7 mph - N/A   Clear
8:00 AM -27.4 °F -53.5 °F -32.8 °F 75% 30.22 in 15.0 mi NNW 13.8 mph - N/A   Clear
9:00 AM -25.6 °F -50.2 °F -31.0 °F 76% 30.21 in 15.0 mi NNW 12.7 mph - N/A   Partly Cloudy
10:00 AM -22.0 °F -45.7 °F -27.4 °F 76% 30.21 in 15.0 mi North 12.7 mph - N/A   Scattered Clouds
11:00 AM -20.2 °F -41.3 °F -25.6 °F 76% 30.20 in 15.0 mi NNW 10.4 mph - N/A   Mostly Cloudy
12:00 PM -14.8 °F -39.8 °F -20.2 °F 77% 30.18 in 15.0 mi North 17.3 mph - N/A   Mostly Cloudy
1:00 PM -13.0 °F -36.8 °F -18.4 °F 77% 30.18 in 15.0 mi North 16.1 mph - N/A   Overcast
2:00 PM -11.2 °F -35.8 °F -16.6 °F 77% 30.17 in 15.0 mi North 18.4 mph - N/A   Overcast
3:00 PM -11.2 °F -35.2 °F -14.8 °F 84% 30.16 in 15.0 mi North 17.3 mph - N/A   Overcast
4:00 PM -9.4 °F -34.1 °F -13.0 °F 84% 30.16 in 15.0 mi North 19.6 mph - N/A   Overcast
5:00 PM -9.4 °F -32.8 °F -13.0 °F 84% 30.15 in 15.0 mi North 17.3 mph - N/A   Overcast
6:00 PM -7.6 °F -32.3 °F -11.2 °F 84% 30.14 in 15.0 mi North 20.7 mph - N/A   Overcast
7:00 PM -7.6 °F -31.1 °F -11.2 °F 84% 30.14 in 15.0 mi North 18.4 mph - N/A Snow Low Drifting Snow
7:47 PM -5.8 °F -29.9 °F -11.2 °F 77% 30.13 in 15.0 mi North 20.7 mph - N/A Snow Light Snow
8:00 PM -5.8 °F -29.9 °F -9.4 °F 84% 30.13 in 15.0 mi North 20.7 mph - N/A Snow Light Snow
8:17 PM -5.8 °F -29.4 °F -9.4 °F 84% 30.13 in 9.0 mi North 19.6 mph - N/A Snow Light Snow
8:27 PM -5.8 °F -28.8 °F -9.4 °F 84% 30.13 in 5.0 mi North 18.4 mph - N/A Snow Light Snow
8:34 PM -5.8 °F -28.8 °F -9.4 °F 84% 30.13 in 6.0 mi North 18.4 mph 25.3 mph N/A Snow Light Snow
9:00 PM -5.8 °F -28.8 °F -9.4 °F 84% 30.12 in 8.0 mi North 18.4 mph - N/A Snow Light Snow
9:05 PM -5.8 °F -29.4 °F -9.4 °F 84% 30.12 in 5.0 mi North 19.6 mph - N/A Snow Light Snow
9:09 PM -5.8 °F -29.4 °F -9.4 °F 84% 30.12 in 4.0 mi North 19.6 mph - N/A Snow Light Snow
10:00 PM -5.8 °F -30.5 °F -9.4 °F 84% 30.11 in 3.0 mi North 21.9 mph - N/A Snow Light Snow
10:04 PM -5.8 °F -29.9 °F -9.4 °F 84% 30.11 in 2.2 mi North 20.7 mph - N/A Snow Light Snow
10:36 PM -5.8 °F -30.5 °F -9.4 °F 84% 30.10 in 2.0 mi North 21.9 mph - N/A Snow Light Snow
10:51 PM -5.8 °F -30.5 °F -9.4 °F 84% 30.10 in 1.0 mi North 21.9 mph - N/A Snow Light Snow
11:00 PM -5.8 °F -29.9 °F -7.6 °F 92% 30.09 in 1.0 mi North 20.7 mph 26.5 mph N/A Snow Light Snow